Location: Bailleul
(50.3375°N, 2.8513°E)
Time: 13:46:42
(UTC+00:00)

Cosmos 2016 Rocket - Pass Details

Date: 27 October 2021
Orbit: 946 x 1001 km, 83.0° (Epoch: 30 November)

Event Time Altitude Azimuth Distance (km) Brightness Sun altitude
Rises 18:41:48 0° 166° (SSE) 3,651 6.8 -21.0°
Reaches altitude 10° 18:44:24 10° 160° (SSE) 2,700 6.1 -21.5°
Enters shadow 18:45:59 18° 153° (SSE) 2,159 5.5 -21.7°
Exits shadow 18:50:15 45° 88° (E) 1,293 4.2 -22.4°
Drops below altitude 10° 18:55:58 10° 20° (NNE) 2,689 6.2 -23.3°
Sets 18:58:33 0° 14° (NNE) 3,635 6.9 -23.7°
